YZ-1 R/B, 43584

Orbit data source: Space-Track

YZ-1 R/B, 43584 is space debris originally from a launch on Sun, 29 Jul 2018 UTC launched from the Xichang Space Center, China (XSC). Debris objects in space refer to the collection of defunct objects orbiting the Earth. Examples of debris include non-operational satellites, rocket bodies, and fragments generated from explosions, collisions, or faulty payload assembly.

Loading next visibility...
YZ-1 R/B details
Identifier
43584, 2018-062D
Orbit
Active
Last TLE update2 days ago
Origin
Flag of CNCASC (CN / PRC)
ManufacturerCALT
MissionSpacecraft
Bus & MotorYZ-1, Unknown motor
Mass~5,815 kg wet, ~5,815 kg dry
Launch date (UTC)
2018-07-29 (6 years ago)
Launch vehicleUnknown
Launch site
Xichang Space Center, China (XSC)
Object type
Payload
Rocket body
Debris
Shape & HBRDouble Cone, 4 m
Radar Cross Section5.890 m², Large (>1 m²)

Expand to show TLE details & history

TLE from 2 days ago
0 YZ-1 R/B
1 43584U 18062D   24345.98045669  .00000073  00000-0  00000-0 0  9996
2 43584  54.0663 207.8179 0041485  42.0235 318.3861  1.78870987 41620
Epoch: 2024-12-10T23:31Z
Definitive object data (Epoch: 2024-12-10T23:31:51.458Z)
Latitude0.00003°
Longitude134.68202°
Altitude22,199.957 km
Speed3.741 km/s
True Right ascension13h 51m 18s
True Declination0° 00' 00"
Sunlit
Object was in daylight at TLE epoch
Visualization TLE readout
Latitude49.84954°
Longitude-104.5066°
Altitude22,248.461 km
Speed3.736 km/s
Apparent Right ascension21h 27m 57s
Apparent Declination38° 01' 12"
Sunlit
Object is in daylight
Visualization observer readout
Local Sidereal Time07:44:27
Azimuth339.654° N
Elevation-8.535°
Doppler factor1
Orbital elements
Apogee altitude22,407.367 km
Perigee altitude22,169.52 km
Semi-major axis28,666.581 km
Eccentricity0.0041485
Inclination54.0663°
RAAN207.8179°
Arg. of periapsis42.0235°
True anomaly318.06917°
Mean anomaly318.3861°
Eccentric anomaly318.22776°
Mean motion0.44718 °/min
BSTARUnknown
Orbital period805.05 mins
Loading maneuver chart data...
Loading historical data...
Loading historical data...
Loading historical data...
Loading historical data...
Loading historical data...
Loading historical data...
Loading historical data...
Other satellites on launch #62 in the year 2018 (2018-07-29 UTC)

YZ-1 R/B Visibility forecast

Observer location: undefined°, undefined

Span
Click to sort rows by Start time (UTC) header in descending order
Start Az.
Max El. time (UTC)
Max El. Az.
Max El.
End time (UTC)
End Az.
483 mins2024-12-13 18:12:42.926Z235.016° WSW2024-12-13 22:35:42.926Z27.995° NE43.882°2024-12-14 02:15:42.926Z148.004° SSE
|